TimePDT,TemperatureF,Dew PointF,Humidity,Sea Level PressureIn,VisibilityMPH,Wind Direction,Wind SpeedMPH,Gust SpeedMPH,PrecipitationIn,Events,Conditions,WindDirDegrees,DateUTC
12:52 AM,78.1,21.9,12,29.67,10.0,Variable,5.8,-,N/A,,Clear,0,2013-05-16 07:52:00
1:52 AM,73.0,25.0,17,29.68,10.0,SW,3.5,-,N/A,,Clear,230,2013-05-16 08:52:00
2:52 AM,71.1,26.1,19,29.69,10.0,SW,8.1,-,N/A,,Clear,220,2013-05-16 09:52:00
3:52 AM,68.0,27.0,21,29.69,10.0,North,4.6,-,N/A,,Clear,10,2013-05-16 10:52:00
4:52 AM,66.0,28.0,24,29.70,10.0,North,4.6,-,N/A,,Clear,350,2013-05-16 11:52:00
5:52 AM,63.0,28.0,27,29.71,10.0,NE,3.5,-,N/A,,Clear,40,2013-05-16 12:52:00
7:52 AM,71.1,30.0,22,29.73,10.0,West,5.8,-,N/A,,Clear,270,2013-05-16 14:52:00
8:52 AM,75.0,30.0,19,29.73,10.0,SW,10.4,-,N/A,,Clear,220,2013-05-16 15:52:00
9:52 AM,78.1,28.9,17,29.71,10.0,SSW,13.8,-,N/A,,Clear,210,2013-05-16 16:52:00
10:52 AM,80.1,28.0,15,29.70,10.0,SW,16.1,-,N/A,,Clear,230,2013-05-16 17:52:00
11:52 AM,82.9,27.0,13,29.68,10.0,WSW,19.6,26.5,N/A,,Clear,240,2013-05-16 18:52:00
12:52 PM,87.1,25.0,10,29.65,10.0,WSW,18.4,28.8,N/A,,Clear,240,2013-05-16 19:52:00
1:52 PM,84.9,21.9,10,29.65,10.0,SW,18.4,27.6,N/A,,Clear,220,2013-05-16 20:52:00
2:52 PM,87.1,23.0,10,29.63,10.0,SW,17.3,27.6,N/A,,Clear,220,2013-05-16 21:52:00
3:52 PM,84.0,21.9,10,29.61,10.0,SW,15.0,29.9,N/A,,Clear,220,2013-05-16 22:52:00
4:52 PM,86.0,23.0,10,29.59,10.0,South,25.3,31.1,N/A,,Clear,180,2013-05-16 23:52:00
5:52 PM,84.9,23.0,10,29.57,10.0,South,13.8,27.6,N/A,,Clear,180,2013-05-17 00:52:00
6:52 PM,82.0,23.0,11,29.57,10.0,SSW,23.0,32.2,N/A,,Clear,210,2013-05-17 01:52:00
7:52 PM,80.1,24.1,13,29.58,10.0,SSW,17.3,-,N/A,,Clear,200,2013-05-17 02:52:00
8:52 PM,77.0,26.1,15,29.60,10.0,SW,20.7,27.6,N/A,,Clear,220,2013-05-17 03:52:00
9:52 PM,75.9,27.0,16,29.60,10.0,South,11.5,20.7,N/A,,Clear,170,2013-05-17 04:52:00
10:52 PM,73.9,28.0,18,29.61,10.0,South,13.8,23.0,N/A,,Partly Cloudy,180,2013-05-17 05:52:00
11:52 PM,72.0,30.9,22,29.59,10.0,South,13.8,32.2,N/A,,Clear,190,2013-05-17 06:52:00